Location: Batang Bintulu
(3.1833°N, 113.0333°E)
Time: 00:37:04
(UTC+00:00)

Daily predictions for brighter satellites

Satellite Brightness Start Highest point End
(mag) Time Altitude Azimuth Time Altitude Azimuth Time Altitude Azimuth
Cosmos 372 Rocket 4.2 10:32:27 10° SSW 10:37:39 77° WNW 10:42:49 10° N
ARIANE 5 R/B 2.5 10:33:25 10° SSE 10:38:24 85° ENE 10:43:24 10° N
SAR-Lupe-1 4.0 10:37:17 10° SSE 10:40:51 84° ENE 10:44:25 10° N
ISS -0.7 10:39:28 10° WNW 10:42:06 21° SW 10:44:44 10° S
Cosmos 44 4.1 10:37:36 10° NNW 10:42:54 63° WSW 10:48:03 10° SSE
ARIANE 5 R/B 1.6 10:37:54 10° W 10:43:26 69° S 10:46:15 10° ESE
SPOT 1/Viking Rocket 4.0 10:39:09 10° SE 10:43:54 37° ENE 10:48:39 10° N
SMAP 4.3 10:40:22 10° S 10:44:50 48° WSW 10:49:18 10° NNW
Cosmos 2333 Rocket 3.7 10:46:42 10° SE 10:50:15 17° ESE 10:53:32 11° ENE
Cosmos 2151 3.4 10:47:21 10° NNW 10:51:28 66° W 10:55:36 10° S
CZ-4 R/B 4.5 10:48:07 10° SSE 10:51:56 49° ENE 10:55:44 10° N
PSLV R/B 4.5 10:52:40 10° SE 10:55:51 23° ENE 10:59:00 10° NNE
Cosmos 2360 Rocket 4.0 10:54:41 10° ESE 10:56:10 11° ESE 10:57:38 10° E
Cosmos 773 Rocket 3.9 10:51:26 10° N 10:56:39 77° ENE 11:01:55 10° SSE
SWIFT 2.4 10:53:39 10° NW 10:56:47 36° NNE 10:59:17 14° E
GPS 2-17 Rocket1 3.0 10:54:54 10° WNW 10:59:07 77° SSW 11:03:25 10° ESE
ARIANE 5 DEB (SYLDA) 2.1 10:56:55 10° W 11:01:33 86° S 11:03:46 16° E
CZ-2D R/B 3.7 10:57:47 10° SSE 11:01:48 46° ENE 11:05:50 10° N
Cosmos 1076 Rocket 4.0 10:59:42 10° NNE 11:03:41 37° E 11:07:40 10° SSE
Palapa 6 Rocket 2.8 11:00:06 10° WSW 11:03:53 59° NNW 11:06:30 18° NE
Orbus 7S 4.3 11:06:07 10° S 11:07:23 15° SE 11:08:10 13° ESE
Cosmos 2208 Rocket 4.2 11:03:43 10° NNW 11:08:53 75° WSW 11:14:09 10° S
BREEZE-M (TANK) 3.9 10:59:26 10° SW 11:09:49 56° WNW 11:12:47 12° NNE
Cosmos 2227 Rocket 3.7 11:13:56 16° E 11:13:56 16° E 11:15:58 10° ESE
BREEZE-M DEB (TANK) 2.9 11:10:13 10° WSW 11:12:49 45° NW 11:18:21 10° NNE
Okean 1-7 Rocket 4.5 11:08:56 10° NNW 11:13:08 51° W 11:17:21 10° S
Meteor 2-6 Rocket 4.2 11:09:20 10° S 11:14:39 59° E 11:20:05 10° NNE
Cosmos 2221 3.2 11:13:00 10° SSE 11:16:47 32° E 11:18:26 24° NE
YAOGAN 1 2.4 11:12:55 10° SSE 11:17:07 63° ENE 11:21:18 10° N
Resurs 01 Rocket 3.1 11:14:34 10° SE 11:16:35 18° E 11:16:35 18° E
Cosmos 2322 Rocket 3.3 11:13:41 10° SSE 11:18:10 24° ESE 11:19:45 21° E
ATLAS 5 CENTAUR R/B 1.8 11:18:08 10° WNW 11:19:58 21° N 11:20:43 19° NNE
CZ-4C R/B 4.1 11:13:37 10° NNE 11:20:22 24° ENE 11:27:21 10° ESE
S3M 4.3 11:21:14 10° SSE 11:27:17 46° E 11:31:45 18° NNE
Cosmos 1553 Rocket 4.4 11:23:51 10° SSW 11:29:49 62° W 11:35:50 10° N
USA 290 3.1 11:29:20 10° NNW 11:32:28 50° WSW 11:35:37 10° S
Cosmos 783 Rocket 4.4 11:29:11 10° N 11:34:26 75° ENE 11:39:40 10° SSE
Cosmos 1607 4.3 11:28:39 10° N 11:34:28 39° ENE 11:40:20 10° SE
Spelda 4.4 11:24:26 10° W 11:34:32 39° NNW 11:35:40 32° NNE
Spot 4 Rocket 4.1 11:31:01 10° S 11:36:06 79° WSW 11:41:12 10° NNW
Ariane H10+ 1.9 11:28:32 10° W 11:36:13 71° N 11:37:43 41° ENE
Atlas Centaur 2 2.5 11:34:00 10° W 11:37:07 27° NNW 11:38:02 24° N
BREEZE-M DEB (TANK) 3.6 11:38:44 10° SSW 11:41:20 27° SSE 11:41:20 27° SSE
Cosmos 1437 Rocket 4.1 11:38:36 10° SSE 11:40:17 22° SE 11:40:17 22° SE
ARIANE 5 DEB (SYLDA) 2.5 11:36:30 10° W 11:42:02 71° S 11:42:29 60° ESE
Cosmos 1238 Rocket 4.3 11:38:54 10° SSE 11:42:08 28° ESE 11:42:08 28° ESE
SL-16 R/B 2.3 11:39:06 10° SSW 11:44:45 78° WNW 11:48:25 23° N
NOSS 2-1 (D) 4.2 11:42:35 10° SSW 11:49:20 78° WNW 11:51:24 37° NNE
SL-08 R/B 4.1 11:49:59 36° ESE 11:49:59 36° ESE 11:53:53 10° S
Delta 168 3.8 11:45:17 10° NW 11:50:02 52° NNE 11:51:12 46° ENE
Cosmos 883 Rocket 4.5 11:44:36 10° S 11:50:43 59° E 11:53:00 38° NNE
Cosmos 1812 Rocket 3.6 11:46:57 10° S 11:51:19 76° W 11:52:55 38° N
Centaur Rocket 4.2 11:41:52 10° WSW 11:51:32 45° S 11:53:05 34° SE
USA 59 Rocket 0.9 11:45:17 10° SSW 11:51:46 65° WNW 11:53:52 34° N
